Theta_e
314 322 320 317 318 317 315 314 315 314 313 312 313 314 314 314 314 313 312 309 310 316 316 319 329 331 331 329 328 330 331 331 330 330 332 332 330 329 329 328 327 327 326 326 326 325 325 324 323 324 326 329 330 330 331 332 333 333 334 334 334 335 335 334 334 335 334 334 333 331 331 330 330 329 326 324 322 316 314 319 326 333 335 335 334 334
318 323 319 315 315 314 313 312 312 312 312 312 314 315 314 314 314 313 311 309 309 314 317 322 329 328 327 328 326 327 329 328 328 328 329 330 329 328 328 327 327 327 326 325 324 322 322 321 321 321 323 326 329 329 330 331 332 333 333 334 334 334 335 335 335 334 334 334 334 333 333 332 331 331 329 327 327 322 315 316 323 330 334 334 334 334
324 321 318 313 310 311 312 312 314 314 315 315 314 317 318 315 315 314 312 312 311 315 320 323 327 324 323 325 324 324 326 326 327 327 328 328 328 327 327 327 327 326 326 324 322 320 318 318 319 320 321 322 324 327 329 330 331 332 332 333 334 334 334 334 334 334 334 334 334 334 334 333 332 332 331 328 328 328 320 315 319 326 331 333 333 334
323 319 316 310 309 316 317 313 316 318 317 317 316 318 318 314 316 316 314 315 315 317 320 322 324 322 322 325 324 322 324 326 326 326 327 327 327 327 327 327 326 326 325 323 321 319 317 317 317 318 319 318 319 322 326 328 329 329 330 331 332 333 333 334 334 334 334 334 334 334 333 334 333 333 333 331 329 329 326 318 316 321 327 331 333 334
320 316 313 311 314 320 319 316 320 321 318 319 317 316 316 315 315 314 314 316 318 318 319 323 326 325 324 326 325 323 323 324 325 325 326 326 326 328 327 327 327 325 324 322 320 319 318 318 318 319 319 318 318 319 321 323 325 327 328 330 331 331 332 333 334 334 334 334 334 334 333 333 333 333 333 333 331 330 328 324 320 322 327 330 332 333
319 314 313 317 320 320 320 319 317 318 322 322 318 314 315 315 314 313 314 317 321 322 320 323 329 329 328 326 326 326 324 324 323 323 325 325 325 326 327 327 326 324 323 322 321 319 319 319 319 319 320 320 320 320 321 322 323 324 326 328 329 330 331 332 334 334 334 334 334 333 333 333 333 332 332 332 332 330 329 328 325 324 328 332 332 331
317 315 315 320 323 321 322 320 315 318 325 322 317 315 314 315 315 313 315 318 322 323 317 317 326 330 328 325 326 326 324 324 323 322 323 325 325 324 325 326 325 324 323 322 320 319 319 319 318 318 318 318 318 318 320 323 324 324 325 326 327 329 330 331 333 334 334 334 334 333 333 333 332 332 332 332 333 332 330 329 328 325 326 332 334 332
317 319 320 321 326 326 323 319 316 321 326 320 316 315 314 316 316 314 316 318 318 318 315 317 324 329 328 326 326 325 323 324 324 323 323 323 324 324 324 325 324 323 322 321 321 320 319 319 318 318 317 316 315 315 317 319 322 324 325 326 327 328 329 331 332 332 333 333 333 333 332 333 332 332 333 333 333 334 332 330 330 327 325 329 334 334
316 320 320 320 325 324 322 320 317 317 320 320 317 315 314 314 317 319 319 320 319 316 317 320 322 326 330 327 323 322 323 325 325 324 324 322 323 323 324 325 324 323 322 321 321 320 319 319 318 318 317 316 315 314 315 316 318 321 324 325 326 326 327 329 331 332 332 333 333 333 333 332 332 331 332 333 333 334 333 332 331 330 328 329 332 333
315 317 315 317 321 321 323 323 319 317 317 316 313 314 317 316 319 323 321 322 323 319 318 321 318 318 327 327 321 321 324 325 325 324 322 321 322 323 323 325 324 323 322 322 321 320 319 319 318 317 316 316 315 314 315 316 317 319 322 324 325 325 326 328 330 331 332 333 333 333 333 332 331 331 330 331 333 333 333 333 332 331 331 330 330 333
315 315 315 316 318 317 320 319 315 314 313 312 313 318 321 321 323 326 325 323 320 320 322 322 317 314 320 325 322 322 324 324 323 323 321 319 320 323 324 324 324 323 322 321 320 319 319 319 317 317 316 316 315 315 316 318 319 319 321 323 325 325 326 327 329 330 331 332 333 332 331 330 330 331 331 332 332 332 333 333 333 332 331 331 330 331
318 317 317 316 316 316 316 315 313 312 311 312 319 323 321 322 324 325 326 321 317 322 325 321 317 313 316 324 323 320 323 325 323 323 322 318 318 322 324 324 324 323 322 321 320 319 319 318 317 316 316 316 316 316 317 319 320 320 321 323 325 325 326 327 328 329 330 330 331 330 329 328 328 329 330 331 332 332 332 332 333 332 332 332 331 330
320 318 317 315 315 315 316 318 319 318 317 317 323 325 322 322 322 322 324 320 319 322 320 318 316 312 316 326 325 320 321 323 320 320 321 317 317 321 323 324 324 323 322 320 320 319 319 318 317 317 316 316 316 316 318 320 320 321 322 323 325 326 326 327 328 328 329 329 330 330 330 329 329 329 330 330 331 331 332 332 333 333 332 332 332 331
325 321 321 319 317 315 315 321 323 322 322 320 321 324 322 322 321 322 323 317 318 320 316 315 316 315 320 323 320 319 318 317 316 316 319 318 318 322 323 324 323 322 321 320 319 319 318 318 317 316 316 316 317 318 320 321 321 321 322 322 324 325 325 326 327 327 328 329 329 330 330 330 330 331 331 331 331 331 332 332 332 333 332 332 332 331
324 321 322 319 317 316 316 320 322 322 321 318 318 320 321 325 325 323 324 321 321 322 317 315 315 319 325 321 316 316 315 314 315 316 318 318 319 322 324 323 323 321 320 320 319 319 318 318 316 316 316 316 318 320 321 321 322 322 322 322 323 324 325 325 326 327 327 328 329 329 329 330 330 331 331 331 331 331 331 331 331 331 332 332 331 330
319 319 321 317 315 316 316 316 316 319 320 315 314 316 318 324 326 321 318 320 322 321 319 316 317 322 324 320 317 316 315 315 315 315 317 317 318 321 324 323 322 321 320 319 319 319 318 317 316 316 315 316 318 321 321 321 322 322 322 323 323 323 324 324 325 326 326 326 327 328 328 328 329 329 329 329 329 329 330 330 330 330 331 332 331 330
320 321 323 318 314 315 316 315 314 315 320 319 316 318 316 316 323 322 315 315 316 318 320 318 319 324 322 320 320 320 320 318 315 315 316 316 319 321 323 323 322 321 320 319 319 318 317 317 316 316 315 316 318 320 321 321 321 322 322 323 323 323 323 324 324 324 325 326 326 327 327 327 327 327 327 327 327 327 328 329 330 331 331 332 331 331
320 324 325 320 317 316 313 314 314 312 316 321 319 319 315 313 319 323 319 319 318 319 322 319 320 325 323 323 324 321 322 321 318 316 314 315 318 320 322 323 321 320 319 319 318 317 317 316 316 315 315 316 318 319 320 320 320 321 321 322 323 323 324 323 324 324 324 325 325 326 326 326 326 326 326 326 327 327 327 328 330 330 331 331 331 330
317 324 326 320 319 319 316 316 318 316 313 316 318 316 315 318 323 321 319 323 321 319 323 321 318 320 321 325 329 325 324 324 320 317 316 315 316 318 321 322 320 319 319 318 318 317 316 316 316 315 316 317 318 318 319 319 319 320 320 321 322 323 323 323 323 323 323 323 324 325 326 326 326 326 326 327 327 326 326 327 329 330 330 331 331 330
317 321 324 321 318 317 320 320 321 324 316 313 317 317 317 324 326 321 318 320 320 319 321 321 319 321 322 324 329 328 324 322 320 319 317 316 315 317 320 321 319 319 318 318 317 316 316 316 315 315 316 317 317 318 318 318 318 319 319 319 320 321 322 322 322 322 322 323 323 324 324 324 325 326 326 327 327 327 328 328 329 330 330 331 331 331
318 317 320 326 321 315 322 323 321 327 324 318 322 320 319 320 317 317 317 316 319 321 321 320 320 325 325 320 323 325 322 319 318 318 317 314 315 317 318 319 319 318 317 317 316 316 316 315 315 316 316 317 317 317 318 318 318 317 317 318 319 319 320 321 321 321 321 322 322 323 323 323 324 326 327 328 328 329 329 329 329 330 330 330 330 330
320 318 320 326 323 319 326 324 317 322 324 324 326 323 323 322 318 320 319 315 317 318 319 319 318 323 323 318 319 320 318 317 315 315 315 314 315 317 317 318 318 317 317 316 316 316 315 315 315 316 316 316 316 317 317 317 317 316 316 317 318 318 318 319 320 321 321 321 321 322 322 323 324 326 328 328 328 328 329 329 329 330 330 330 330 329
318 320 320 322 323 322 321 316 312 316 319 320 321 319 321 323 322 324 323 319 319 316 316 316 317 324 324 316 316 316 313 314 315 314 314 314 315 316 317 318 317 317 317 316 316 315 315 315 315 315 316 316 316 316 316 316 316 316 316 316 316 316 315 316 318 319 320 320 320 320 321 321 321 324 327 328 328 328 328 329 330 330 330 331 330 330
317 319 319 321 326 325 319 314 313 315 316 317 318 316 318 322 322 323 324 322 320 319 319 317 318 326 325 314 312 313 312 312 314 315 315 314 315 316 316 317 316 316 316 315 316 315 315 315 315 315 315 315 315 315 315 316 316 315 315 315 313 312 312 314 317 318 319 319 319 319 318 319 320 322 325 326 327 328 328 328 329 329 329 329 329 329
316 319 320 320 324 324 322 323 321 319 318 319 320 318 319 321 320 319 319 317 318 320 321 320 320 325 324 317 314 316 315 314 312 313 315 315 315 316 316 317 316 316 316 315 315 315 315 315 315 315 315 315 315 315 315 316 316 315 314 313 311 311 313 315 317 318 318 318 318 318 317 318 319 321 323 324 324 325 326 327 328 328 328 328 329 329
315 319 320 320 320 319 321 326 326 324 321 319 319 319 319 320 319 319 319 317 319 319 318 320 322 321 321 321 321 321 321 320 316 313 314 315 315 316 316 316 316 315 315 316 315 315 315 315 315 315 314 315 315 315 315 315 315 315 314 312 311 312 315 316 317 317 317 317 317 317 317 318 319 321 323 323 323 323 323 324 325 327 328 328 329 330
319 318 320 322 321 319 322 326 323 320 320 318 319 319 320 319 318 320 321 320 321 320 318 320 320 318 319 320 321 322 323 324 319 313 313 314 315 316 316 316 316 316 315 316 315 315 315 314 314 314 314 314 314 314 314 315 315 314 313 312 311 313 315 316 316 316 316 316 316 317 317 317 319 321 322 322 322 323 322 322 323 325 326 327 329 329
321 319 319 321 321 320 322 324 319 316 318 320 320 320 321 320 318 319 321 321 321 320 320 322 320 318 319 318 320 323 324 324 318 312 313 315 315 315 316 316 316 315 316 316 315 315 315 314 314 314 314 314 313 313 314 314 315 314 312 311 311 313 315 315 315 315 315 316 316 317 317 317 318 319 320 320 320 320 321 321 322 324 324 326 327 328
324 320 318 318 320 322 321 320 318 317 318 320 320 320 321 321 319 319 319 319 319 319 320 322 322 320 319 319 321 321 319 319 317 314 315 315 315 315 315 315 316 316 316 315 315 315 314 314 314 314 313 314 313 313 313 314 314 313 311 310 311 313 314 314 314 314 314 315 315 316 316 316 317 318 318 318 318 318 319 319 320 321 322 323 324 326
320 321 319 317 319 323 323 320 318 318 319 320 320 320 320 320 320 320 319 317 317 317 318 319 318 318 316 315 317 315 312 313 314 314 315 314 315 315 315 316 316 316 315 315 314 314 314 314 314 314 314 314 313 313 313 313 313 312 310 310 311 312 313 313 313 312 313 313 314 315 315 315 316 316 316 316 315 315 316 317 317 318 320 321 321 322
315 320 321 318 319 324 324 321 319 319 319 321 322 321 319 318 318 318 316 316 316 317 317 315 316 317 315 312 312 312 311 313 313 313 314 315 315 315 315 316 316 316 315 314 314 314 314 314 314 314 314 313 313 312 313 313 312 311 310 310 310 311 312 312 311 311 311 312 313 314 313 313 314 314 314 315 314 314 314 314 315 316 317 318 318 319
316 318 320 319 321 324 322 320 322 321 319 319 321 322 320 318 319 319 316 316 318 318 317 315 316 319 315 312 312 312 311 311 313 313 313 314 315 315 315 316 315 315 315 314 314 314 314 314 314 314 313 312 312 312 312 312 312 311 310 310 310 310 311 311 310 310 310 311 311 312 312 312 312 312 312 313 313 313 312 312 312 313 314 315 316 317
321 322 323 320 321 323 320 318 321 320 318 320 323 325 323 321 320 319 317 317 317 316 318 318 317 318 317 316 319 320 315 311 312 314 314 314 315 315 315 316 315 315 315 314 313 313 314 314 313 313 313 312 312 312 312 312 311 310 309 309 310 310 309 310 310 309 309 309 310 311 311 311 311 311 311 310 310 309 309 309 309 309 310 311 311 313
321 322 323 319 319 323 322 318 316 316 319 324 326 326 324 320 321 322 321 321 317 315 318 319 317 319 320 320 323 324 320 315 313 315 315 315 315 315 315 316 316 315 315 314 313 313 314 313 313 312 312 312 312 312 311 311 311 310 309 309 309 309 309 309 309 309 309 308 308 308 309 309 309 309 308 307 306 305 305 304 304 304 304 304 305 306
321 320 320 318 318 322 322 318 317 319 322 323 322 319 317 316 317 319 320 321 316 314 318 318 316 318 316 314 315 316 316 315 315 315 316 315 315 316 316 316 316 315 315 314 313 313 313 313 313 312 312 312 312 311 311 311 310 310 309 309 309 309 308 308 309 309 308 308 307 307 307 307 307 306 305 304 302 301 301 301 301 301 302 302 303 303
323 321 319 318 317 319 320 318 318 320 321 320 317 313 312 313 314 315 319 324 322 318 317 317 317 314 310 309 311 313 314 315 316 316 316 316 316 316 316 316 316 316 316 315 313 312 312 313 313 312 312 312 312 311 311 311 310 309 309 309 309 308 308 308 308 308 308 308 307 307 306 305 305 304 304 302 300 300 300 300 301 301 302 304 304 304
320 321 320 318 316 318 320 319 319 319 318 321 320 314 312 314 318 318 317 324 328 320 314 317 320 315 309 309 312 313 314 316 317 317 316 316 316 316 316 317 316 316 316 316 314 313 312 313 313 312 312 311 311 311 311 310 310 309 309 309 309 308 308 309 309 308 308 307 307 306 306 305 305 304 303 301 300 301 302 302 303 304 305 306 306 306
316 319 321 319 315 316 319 319 320 320 320 323 325 318 312 311 315 316 315 320 325 316 309 316 322 316 310 310 312 314 315 318 322 322 316 315 317 316 316 317 316 316 317 316 315 314 313 313 313 313 313 311 311 311 310 310 310 309 309 310 309 309 309 309 309 308 308 307 306 306 306 305 305 304 302 301 302 303 305 306 307 307 307 308 308 308
316 317 319 319 317 316 317 319 321 321 320 324 327 319 312 309 310 313 317 323 323 313 308 312 315 311 309 311 313 315 318 322 326 323 315 314 317 316 316 317 316 316 317 316 316 315 314 314 313 313 313 312 312 311 310 310 309 309 309 309 309 309 309 308 309 308 307 307 306 306 306 305 304 302 302 303 304 306 307 308 308 308 309 309 309 309
316 317 317 317 318 318 318 320 320 318 319 324 325 317 310 310 312 315 321 326 321 312 309 311 311 309 309 311 314 317 320 324 324 319 314 314 316 315 317 317 316 317 316 316 316 315 315 315 314 313 313 313 312 311 310 309 309 309 309 309 309 309 308 308 308 308 307 306 306 306 306 305 303 302 303 304 304 306 308 308 308 309 309 309 310 310
316 317 317 316 318 317 316 318 318 318 321 322 319 314 310 310 315 319 323 324 318 312 312 312 311 311 310 311 314 317 319 318 317 315 314 314 314 315 316 316 316 316 316 316 316 315 315 314 313 313 313 312 311 310 309 309 309 308 308 308 308 308 308 308 308 307 306 305 305 305 305 304 302 302 303 303 303 305 307 308 308 309 309 309 310 310
318 318 316 316 317 317 317 318 318 319 320 316 312 312 311 313 319 321 320 317 314 313 314 313 312 312 311 312 314 315 315 314 314 315 315 314 313 314 315 316 316 316 316 316 316 315 313 313 313 312 312 311 310 309 309 308 308 308 308 308 307 307 307 307 307 306 305 304 304 304 304 304 303 303 304 304 303 304 306 308 309 308 308 309 310 310
318 318 319 318 317 317 316 317 319 322 320 313 312 313 312 316 323 321 315 314 314 313 314 313 313 313 312 313 313 313 313 313 313 314 314 314 314 314 314 315 316 315 316 316 315 314 312 312 312 311 311 310 309 308 308 307 307 307 307 307 307 306 307 307 307 306 304 304 304 304 304 304 304 304 305 305 304 304 304 305 307 308 308 309 309 310
316 318 322 320 318 318 319 320 320 320 317 313 315 318 315 316 319 315 313 314 314 313 314 313 313 313 312 312 313 312 312 312 312 313 314 314 315 314 314 314 315 316 316 316 315 313 311 311 312 311 310 309 308 307 307 307 307 307 307 307 307 307 307 307 306 305 304 304 304 303 304 305 305 304 305 305 305 305 303 301 301 303 306 308 308 309
318 318 321 323 321 319 320 321 318 315 313 313 315 317 315 314 314 313 313 314 314 314 314 313 312 312 312 312 312 312 312 312 312 313 313 313 314 314 313 313 314 316 316 315 314 312 311 311 311 310 310 309 307 307 308 307 307 308 308 307 307 307 307 307 306 304 304 304 304 303 305 307 305 304 305 305 305 305 303 301 299 299 302 305 306 307
315 311 313 319 321 316 315 316 313 311 313 314 314 315 315 314 315 314 313 313 314 314 314 313 313 313 312 313 313 312 312 312 311 312 313 314 314 313 312 312 314 315 315 314 312 311 311 311 310 309 309 308 307 307 308 308 308 308 308 308 307 307 307 306 304 303 304 304 303 303 306 306 304 304 305 304 304 304 301 299 298 297 299 301 302 303
313 309 312 318 319 317 320 322 316 312 313 314 313 314 315 314 315 315 314 315 314 314 314 314 314 314 313 313 313 312 312 312 311 312 313 314 314 313 312 312 314 314 314 312 311 311 310 310 310 309 308 308 308 308 308 308 308 308 308 308 307 306 306 304 302 302 303 302 301 304 307 305 303 305 306 303 302 302 299 297 297 296 296 298 298 300
314 310 315 319 318 318 322 321 314 311 313 314 313 314 314 314 315 315 314 315 314 314 314 314 314 314 314 314 313 313 312 312 312 312 313 313 313 313 312 313 313 313 313 312 311 310 309 310 310 309 309 309 308 308 308 308 308 308 308 307 307 307 306 304 301 301 301 300 301 305 307 304 303 305 306 303 302 301 299 297 296 295 295 296 296 298
313 312 316 316 316 318 318 315 313 314 317 315 314 315 315 314 315 315 314 315 315 315 314 314 314 314 314 314 314 313 312 312 312 312 312 313 313 312 312 313 313 313 312 311 310 310 309 309 309 309 310 309 308 307 307 307 308 308 307 307 307 307 306 304 301 300 300 300 302 305 306 304 304 305 305 303 302 301 301 299 297 296 295 295 295 297
312 317 317 314 316 320 319 316 315 318 319 317 315 315 315 315 315 315 315 315 315 315 315 314 314 314 313 314 313 313 313 313 312 312 313 313 313 313 312 313 313 312 311 311 310 310 309 309 310 310 310 309 307 307 307 306 307 307 307 307 307 307 306 304 302 302 301 300 301 304 305 304 304 305 304 302 301 302 302 301 299 298 296 295 295 296
314 318 317 316 319 320 317 313 313 314 316 316 315 315 315 315 315 315 315 315 315 315 314 314 314 314 314 314 313 313 313 313 312 312 313 312 312 312 312 313 313 312 311 311 310 310 310 310 310 309 309 308 307 307 307 306 306 306 306 307 307 307 306 305 303 303 301 298 300 303 304 303 305 306 305 303 301 302 303 302 300 299 297 296 295 296
Wind_Speed
4 4 3 0 3 3 2 4 5 4 4 4 5 3 4 4 3 4 4 6 4 5 3 4 8 8 6 3 4 6 5 5 4 6 11 15 16 13 10 10 11 11 11 9 8 6 5 4 3 3 2 3 3 4 4 4 5 6 8 10 13 15 17 18 20 22 24 24 24 24 24 23 21 19 20 21 21 22 22 23 23 21 19 18 17 16
4 5 2 5 6 4 4 5 3 3 3 3 4 2 2 3 2 4 2 4 1 4 4 6 10 6 4 4 5 6 4 2 2 3 4 9 12 11 11 11 12 12 12 9 7 6 5 4 3 2 1 2 3 4 4 4 4 5 7 9 11 14 17 20 21 22 23 23 24 25 24 24 23 21 21 22 21 21 21 24 25 23 21 20 19 18
6 4 7 7 4 3 2 1 5 5 4 4 2 3 1 2 2 4 5 5 3 4 3 7 10 5 4 4 5 6 3 1 3 4 5 5 8 9 10 12 13 13 11 9 7 6 4 4 3 2 2 1 3 3 4 5 5 6 6 7 9 12 15 17 20 23 24 24 23 24 24 24 24 23 21 22 23 22 22 25 26 25 23 22 20 19
3 3 8 6 2 6 7 5 6 6 4 4 4 4 1 4 2 2 5 6 6 5 6 8 8 3 4 4 5 5 3 3 3 6 6 6 7 8 10 11 12 11 9 7 6 6 6 5 3 1 2 2 3 4 5 6 7 9 8 8 9 11 13 14 17 20 23 25 25 25 24 23 24 25 24 23 24 25 24 25 26 26 25 23 21 20
2 6 7 5 6 7 7 6 6 6 3 3 2 4 0 3 2 2 1 4 8 7 7 9 7 3 3 3 1 3 2 3 3 6 8 6 7 9 9 10 10 8 6 5 6 6 6 5 4 2 2 3 3 5 6 7 8 10 10 11 11 11 14 15 15 16 18 21 23 25 25 25 24 26 26 25 26 27 26 26 26 26 25 24 22 21
1 4 5 5 7 7 7 5 3 4 3 4 1 1 1 1 2 3 3 4 7 3 1 5 5 2 4 2 4 3 2 2 2 5 9 8 7 10 10 10 9 7 6 5 5 5 5 5 4 3 3 4 4 6 7 8 8 9 11 12 12 12 14 16 17 17 17 18 19 22 24 25 25 26 27 27 26 27 27 27 27 26 26 25 23 22
0 4 5 6 6 7 7 4 0 4 5 2 2 2 2 3 4 4 4 4 3 2 2 3 4 2 4 4 5 2 2 4 3 5 9 10 9 10 10 10 9 7 6 5 4 4 5 5 5 5 6 7 8 8 9 10 10 10 11 12 12 13 13 15 17 18 18 19 19 22 24 25 26 26 26 26 26 27 27 27 27 27 27 27 26 24
2 4 7 6 6 6 5 2 1 4 6 0 3 1 2 5 5 2 4 4 2 3 0 3 4 3 2 5 5 3 2 5 6 5 9 12 11 10 11 11 10 8 5 4 3 3 3 4 5 6 7 9 10 10 11 11 12 12 12 13 13 13 13 14 16 18 19 20 21 22 23 25 26 26 25 26 26 28 28 26 27 29 29 29 29 27
1 2 3 4 5 3 1 3 4 5 4 3 4 3 2 4 6 4 5 3 2 3 1 4 4 3 3 5 1 3 4 7 8 8 9 12 12 11 12 13 11 8 6 4 2 1 2 4 5 7 10 12 12 12 12 12 13 13 13 14 14 13 12 13 14 16 18 20 21 22 23 24 24 24 24 25 26 28 29 28 28 30 32 32 31 30
1 2 2 4 3 1 4 5 4 5 1 2 4 5 4 5 5 4 5 3 3 3 4 5 2 2 4 4 1 2 4 9 10 8 8 12 14 14 14 14 13 10 8 6 3 0 2 4 7 9 12 14 14 14 14 14 13 13 13 14 14 14 12 11 12 14 16 18 20 21 22 22 22 21 21 23 25 26 28 29 29 30 32 32 32 32
4 3 2 3 2 4 4 3 2 2 1 2 5 5 5 5 5 3 3 4 2 1 6 5 4 4 4 4 5 5 5 9 11 7 7 12 16 17 17 16 15 12 10 6 3 2 3 5 8 11 12 13 14 14 14 14 14 14 13 13 14 14 13 11 10 11 13 15 17 19 20 20 21 20 19 20 22 23 26 29 31 32 32 32 33 33
7 2 1 2 2 1 2 1 2 3 2 4 4 4 3 4 4 3 4 3 3 3 6 4 3 5 4 5 6 8 6 5 10 10 10 13 17 20 19 18 17 13 10 6 4 3 3 6 9 11 12 12 13 14 14 14 15 14 13 12 12 13 12 11 11 10 10 11 13 15 16 17 18 18 20 21 20 21 24 27 29 32 33 33 34 35
4 1 3 4 1 1 3 2 3 5 5 4 4 4 3 2 2 1 3 0 2 5 3 1 1 2 6 6 6 11 10 7 10 13 13 16 20 22 22 20 17 13 9 6 5 4 5 7 9 10 11 12 13 13 13 13 14 14 13 11 10 11 11 11 10 10 9 9 10 12 14 15 14 15 18 21 21 21 22 24 26 30 34 35 36 36
2 4 6 4 2 2 3 3 1 2 3 3 4 4 3 2 2 1 3 1 2 4 2 2 1 2 4 4 4 9 11 10 11 12 15 19 23 25 24 21 17 13 10 8 7 6 6 7 8 9 11 12 12 12 11 11 12 13 12 11 10 11 12 11 10 9 9 9 10 11 13 14 14 15 18 19 21 22 22 23 25 28 32 37 38 35
1 3 4 1 2 4 2 3 4 3 2 1 3 5 4 4 4 3 3 2 2 3 2 3 2 2 2 3 4 6 7 8 11 12 14 18 22 24 23 20 17 15 13 11 9 7 7 7 8 9 10 10 10 10 10 10 10 11 12 12 10 11 12 12 11 10 9 9 10 10 12 13 13 15 17 19 20 22 24 25 25 26 29 37 40 35
2 3 6 4 3 1 2 2 4 5 3 1 1 4 2 3 4 2 2 4 3 1 2 2 2 3 3 4 4 2 2 2 9 12 14 17 20 22 23 22 19 17 15 13 11 8 7 8 9 10 10 9 8 9 10 10 10 10 11 10 9 11 12 13 12 11 11 10 10 10 11 11 12 12 14 15 16 18 21 24 25 25 26 32 39 37
2 3 6 4 2 1 2 2 2 3 1 1 1 1 2 3 6 4 1 0 3 1 3 1 3 4 3 4 4 3 4 3 3 9 14 18 20 22 24 24 21 19 16 14 11 9 8 9 11 11 11 9 7 8 10 10 10 10 9 8 8 10 11 12 12 12 12 11 10 10 11 12 11 12 12 13 13 14 17 21 24 26 24 26 35 39
3 2 6 2 0 3 4 2 4 4 2 1 1 3 3 2 4 4 1 2 3 2 3 1 3 4 2 2 5 4 1 3 3 6 9 15 19 21 24 25 23 20 16 14 12 10 10 11 11 11 11 9 6 7 9 10 10 10 10 9 8 8 9 11 12 12 12 12 12 11 12 12 12 12 13 13 13 14 16 18 22 25 26 25 29 37
3 1 6 2 2 5 6 3 3 6 5 3 3 3 2 2 1 1 1 0 0 2 3 3 3 3 3 4 3 2 6 7 5 5 6 11 17 22 25 26 23 20 17 15 13 12 12 11 10 10 10 7 4 6 8 9 10 10 10 10 8 8 9 11 11 11 12 13 13 13 13 13 14 13 13 14 14 15 17 18 19 23 27 26 27 32
3 2 4 4 2 3 5 3 1 3 5 4 4 2 2 2 3 1 2 2 2 2 2 3 3 3 5 5 5 8 11 9 8 7 7 13 20 24 26 26 24 21 19 17 14 13 12 10 10 9 8 7 4 5 7 8 9 8 9 10 9 8 9 10 10 10 11 12 13 13 13 13 13 12 12 13 12 12 14 15 17 20 23 25 27 29
2 3 2 5 4 2 2 1 3 3 1 2 2 1 1 2 2 1 1 2 3 2 2 1 3 5 5 4 6 10 10 8 10 9 10 16 22 25 26 27 25 22 20 17 15 13 11 10 10 9 7 6 5 5 7 7 8 7 8 9 9 8 8 9 10 10 10 11 12 12 12 13 11 10 9 9 9 10 11 11 14 18 19 22 25 27
1 3 2 3 4 2 4 4 3 5 4 4 3 3 3 3 3 2 1 2 1 2 3 3 3 7 5 3 5 7 6 7 13 13 11 17 23 25 26 26 25 23 20 17 14 12 11 11 11 9 7 6 5 5 6 7 7 7 6 7 8 8 10 10 9 10 10 10 11 11 12 13 14 10 7 7 8 9 11 12 13 17 19 20 22 25
3 4 2 2 3 4 6 4 1 4 4 4 2 2 3 3 4 4 2 3 0 0 1 3 2 6 5 3 4 6 6 9 14 15 14 17 23 25 26 26 24 22 19 16 14 13 12 12 12 9 7 7 6 5 5 6 7 6 5 6 7 9 10 10 9 9 9 9 10 11 13 14 16 14 9 8 10 11 13 14 13 15 17 19 22 23
2 3 1 2 4 4 5 4 2 2 3 3 0 1 4 2 2 4 4 3 2 2 2 1 3 6 5 4 3 5 5 7 12 16 16 18 21 24 26 25 24 22 19 16 14 13 13 13 12 9 7 7 6 4 5 5 5 5 5 6 8 10 10 9 8 8 8 8 9 11 14 14 14 12 8 7 9 11 10 12 14 15 16 17 19 21
2 0 2 1 4 5 6 6 5 5 1 2 2 1 2 3 5 3 2 3 1 3 4 3 4 5 5 4 4 3 2 3 9 15 18 19 21 24 26 25 24 22 19 17 15 14 14 13 12 10 7 6 6 5 5 5 6 6 6 8 10 10 8 7 7 7 7 7 8 11 14 13 11 9 7 6 6 7 6 7 10 14 15 16 17 18
3 1 3 3 1 2 2 2 2 2 1 1 1 2 3 4 6 3 2 3 2 3 4 4 5 6 5 5 5 3 2 4 7 11 16 19 22 25 26 26 24 23 20 18 16 15 15 12 11 9 7 6 6 6 6 7 7 6 6 9 10 8 5 4 5 6 7 7 7 9 11 10 7 7 7 5 5 5 6 5 5 9 13 14 16 18
3 1 3 5 5 6 6 6 5 3 1 2 3 3 3 4 5 4 3 3 4 2 3 5 6 6 9 8 6 5 4 5 7 9 15 19 22 25 26 26 25 23 20 18 17 16 16 13 11 8 6 6 6 6 6 7 7 6 6 8 8 5 3 4 5 6 7 8 7 8 8 7 5 6 5 4 4 5 6 6 4 2 7 10 14 18
4 1 2 5 6 8 7 7 4 3 3 5 4 4 4 5 5 5 4 5 4 3 4 7 5 5 9 8 7 8 6 6 8 13 18 20 23 25 26 25 24 22 20 18 18 18 17 15 12 9 7 7 6 5 5 6 7 6 5 6 5 4 3 3 5 6 6 6 6 5 4 3 3 4 4 4 4 5 4 4 4 3 1 5 10 14
4 2 3 4 5 6 6 6 4 4 4 5 6 7 6 6 7 8 8 6 6 5 7 6 6 7 9 8 7 8 8 8 12 16 18 19 21 23 24 25 24 23 21 20 20 20 19 16 13 9 8 7 7 7 7 7 7 6 5 4 2 3 4 4 5 5 4 4 4 4 4 3 1 2 3 4 4 5 5 4 2 2 3 3 6 8
3 2 3 2 3 6 5 5 4 5 4 3 6 8 7 7 9 9 8 6 7 8 10 6 5 8 10 9 10 13 12 11 13 14 15 18 20 23 25 26 25 24 22 21 21 21 20 17 13 10 9 8 8 9 9 9 8 6 5 3 2 3 4 4 5 3 3 3 3 3 4 4 3 4 4 4 4 3 4 3 2 1 2 3 5 8
2 2 1 3 2 6 5 3 0 4 4 4 7 7 6 6 6 7 6 4 5 8 10 6 5 10 10 8 11 16 15 10 10 13 17 20 22 24 26 27 27 25 23 22 21 21 20 17 13 11 10 10 10 10 10 10 9 7 5 3 3 3 2 2 3 2 2 2 2 2 3 3 4 4 4 4 4 3 3 4 4 4 3 3 3 4
2 1 1 4 1 5 4 5 4 2 1 4 8 9 7 6 5 5 5 5 7 7 7 4 4 8 8 4 6 11 10 10 13 16 19 21 23 25 27 28 28 25 22 22 22 21 20 17 14 12 11 11 11 10 10 11 10 7 5 5 5 4 2 2 2 2 2 2 2 2 2 3 4 4 5 5 5 4 4 3 5 7 7 6 6 6
4 3 1 2 1 5 4 4 4 4 4 5 8 7 7 6 5 5 4 5 8 7 5 5 7 8 4 2 3 6 6 9 14 18 19 21 24 26 27 27 27 24 22 21 21 21 19 16 14 13 12 12 12 10 9 11 11 7 6 7 7 5 3 3 3 2 1 1 2 3 3 3 4 5 6 7 7 6 5 5 5 7 7 7 6 7
4 5 3 2 2 4 6 4 3 3 3 6 6 5 6 6 7 7 7 8 9 7 4 6 7 5 3 4 6 7 8 9 13 16 18 20 22 25 27 26 25 23 20 19 19 19 19 17 15 15 14 13 13 10 10 13 11 8 7 8 8 6 5 5 4 3 2 3 4 5 5 5 6 8 9 9 8 7 6 6 6 6 6 6 6 7
4 5 3 2 2 3 3 4 3 4 6 7 6 4 5 6 7 8 8 9 8 8 8 9 10 9 8 10 13 12 11 10 11 13 14 15 19 22 24 25 25 22 20 18 18 18 18 18 18 17 16 15 14 12 13 15 14 11 9 9 8 7 6 5 5 5 5 5 5 6 6 7 8 8 9 9 8 6 5 5 5 6 6 7 7 8
6 5 3 2 2 1 1 2 2 6 8 8 7 2 2 2 3 2 7 9 8 10 9 10 13 12 11 14 15 12 10 9 9 12 12 12 14 18 21 23 23 21 20 18 18 18 19 20 21 20 18 17 15 13 15 17 16 13 11 9 8 7 6 4 3 5 6 5 5 6 7 7 8 8 8 7 6 4 3 5 6 6 6 7 8 9
7 5 3 2 2 2 1 2 2 5 9 8 4 0 3 2 4 4 3 7 7 8 9 9 10 10 9 11 11 8 5 4 6 10 12 11 11 14 17 19 19 18 18 17 18 18 18 19 21 20 19 18 16 15 16 18 16 14 12 11 9 8 7 5 4 5 5 5 5 6 7 7 8 8 7 5 3 2 3 4 6 6 7 8 9 9
5 4 5 4 2 3 3 2 3 3 5 6 6 5 4 4 6 6 1 5 7 7 11 10 9 7 6 7 7 7 4 1 4 9 13 11 11 12 12 15 17 16 15 15 17 18 18 19 21 21 20 20 18 16 17 17 16 14 13 12 10 9 8 6 6 6 6 5 5 5 6 7 8 8 5 1 2 3 5 7 8 8 9 9 9 9
4 2 5 5 1 3 4 2 2 3 6 8 8 7 3 3 5 3 4 5 7 6 8 9 9 8 7 10 12 10 5 2 4 12 14 10 9 11 11 12 14 14 13 14 16 17 18 18 20 21 22 21 19 16 16 16 15 14 13 12 11 10 9 8 7 7 6 6 5 5 6 6 8 6 2 4 6 7 9 11 12 11 11 10 9 9
4 3 4 4 3 3 4 2 3 4 6 7 8 8 3 1 3 6 4 7 7 4 4 6 10 10 7 12 14 9 5 5 7 12 11 5 5 9 10 10 11 13 14 14 14 14 14 14 17 21 24 23 19 16 15 14 14 12 11 11 11 10 9 9 8 7 7 7 6 5 5 6 6 3 3 6 8 10 10 12 14 14 12 11 10 10
2 2 2 3 4 4 4 3 3 4 7 8 11 11 5 4 4 4 3 7 5 4 6 7 11 11 7 13 15 10 10 13 13 13 6 1 3 8 11 11 12 13 13 13 12 12 13 15 18 22 24 23 19 16 14 13 12 11 12 12 11 9 9 8 8 7 7 7 7 6 5 4 3 2 6 8 9 10 10 12 14 14 13 12 12 12
2 1 1 3 3 3 3 3 2 5 7 7 6 6 8 7 1 5 7 4 4 6 9 10 11 10 8 12 15 13 14 15 16 15 9 5 4 6 9 13 14 14 14 13 11 11 13 17 20 21 21 20 17 14 13 12 10 10 12 11 9 8 8 8 8 8 7 7 7 5 4 2 1 4 8 9 9 9 10 11 12 12 12 13 14 14
4 4 2 3 3 3 2 2 1 5 5 6 9 6 5 6 5 6 7 6 6 7 9 10 10 9 8 11 13 13 14 15 15 15 13 11 10 8 9 12 16 17 16 14 13 13 15 19 20 20 20 19 16 14 14 12 9 8 10 10 7 8 9 9 8 8 7 7 6 5 3 2 3 6 9 9 9 9 9 10 11 11 11 12 14 15
3 4 3 3 3 4 3 3 5 5 6 12 11 5 8 15 13 7 5 6 6 6 8 9 9 8 8 9 10 11 14 16 16 14 12 12 13 12 12 12 15 18 16 15 16 17 18 20 20 19 19 18 16 16 15 12 9 9 10 10 8 9 10 9 8 8 8 8 7 5 4 3 3 7 10 9 8 8 8 8 8 9 10 11 13 14
6 6 4 3 3 4 5 7 8 6 5 12 15 13 13 17 20 16 10 8 7 6 7 9 10 9 8 8 9 11 13 15 15 13 11 10 11 12 11 10 13 17 16 15 17 18 18 20 20 20 20 19 17 16 15 13 11 10 10 10 9 9 9 8 8 8 9 9 7 6 6 4 4 8 10 9 7 5 5 6 6 7 9 10 11 12
5 5 4 2 3 3 6 11 11 10 11 13 16 19 18 18 20 20 19 18 15 11 10 10 11 11 9 8 9 10 11 12 13 13 12 11 11 11 8 8 11 14 15 16 18 18 19 20 21 21 21 20 18 17 16 15 12 10 10 9 8 8 8 8 8 8 9 9 9 8 8 6 6 9 9 8 6 5 5 6 6 6 8 9 10 10
2 5 4 1 1 1 4 8 7 8 14 15 14 17 19 20 20 21 21 23 21 18 16 14 12 12 11 11 12 11 10 10 12 13 13 13 13 11 9 9 11 14 16 19 19 19 19 21 22 22 22 20 19 18 16 15 13 11 9 8 7 7 7 7 7 8 9 9 9 10 9 8 8 9 8 8 7 7 6 7 7 6 6 7 8 11
2 5 3 2 3 3 5 9 9 11 14 13 11 12 13 13 16 17 18 20 21 20 19 17 15 14 14 14 14 13 11 10 11 14 15 15 14 13 11 12 13 16 19 20 19 19 20 21 22 23 21 19 17 15 14 14 13 11 10 9 7 6 6 5 6 7 7 7 9 11 10 8 8 8 7 7 8 8 8 8 8 7 7 7 8 10
5 4 3 3 2 2 7 10 10 9 8 6 6 7 9 11 14 15 15 15 18 20 20 19 17 16 15 15 15 14 13 12 11 13 16 17 16 14 13 14 16 19 21 21 20 19 20 21 21 22 20 17 15 13 12 13 13 12 12 11 8 6 5 5 5 6 7 7 10 12 11 10 9 8 7 8 9 9 8 9 9 8 8 9 10 11
5 3 3 3 1 3 5 4 1 1 4 6 8 10 11 13 16 17 16 15 16 19 21 19 18 17 16 16 16 16 15 13 12 13 16 18 17 15 15 16 19 22 23 22 21 21 21 20 19 19 18 16 14 13 13 13 13 13 13 12 9 7 5 4 5 6 7 8 11 13 12 11 11 9 8 8 9 8 7 8 9 8 8 9 11 13
7 6 5 5 4 6 9 9 4 3 5 8 10 12 14 16 17 18 18 17 17 17 19 21 20 18 17 17 17 17 17 15 13 13 16 18 18 16 16 18 21 22 22 22 22 21 21 20 18 17 17 17 16 16 15 15 15 15 14 13 10 8 6 5 5 6 7 8 12 15 13 12 12 10 8 9 10 9 7 7 7 8 9 10 11 13
Wind_Direction
40 53 53 191 253 259 239 209 196 184 165 141 134 155 211 219 282 273 267 277 187 113 44 113 126 130 127 72 72 119 134 128 150 170 161 157 152 148 141 136 134 130 127 121 117 106 87 81 78 92 132 174 198 212 212 209 213 220 226 231 237 239 240 240 237 235 234 232 232 234 236 234 232 232 228 223 222 223 222 218 214 214 213 208 202 202
52 56 338 263 245 237 234 214 165 127 114 92 130 152 266 215 267 314 314 306 244 97 44 96 107 89 75 58 60 100 112 115 168 212 206 173 158 152 150 145 142 137 132 126 117 104 89 72 59 57 112 203 230 241 253 254 242 237 231 227 231 234 236 238 238 238 237 236 237 241 246 246 243 242 237 229 224 222 223 220 216 214 216 213 206 203
40 28 314 298 251 169 65 86 98 90 92 69 91 119 356 271 271 324 344 354 13 88 101 116 109 75 25 47 58 75 100 192 211 245 259 218 175 162 161 156 149 142 135 131 122 108 94 73 56 21 347 302 269 262 264 266 266 264 251 238 232 234 237 237 236 237 237 238 239 243 248 249 248 247 243 237 232 227 223 220 217 215 217 217 211 205
42 308 308 329 69 101 57 37 69 67 62 63 62 89 2 311 42 9 341 9 32 79 127 120 97 57 10 29 45 57 101 187 229 240 234 225 203 181 171 161 150 145 141 134 122 109 96 84 72 40 332 320 310 289 276 273 273 271 268 259 244 238 242 241 238 237 238 239 239 239 242 244 246 245 244 242 237 232 226 221 216 215 216 216 212 208
154 275 312 20 52 77 74 38 55 77 33 4 67 100 357 316 47 95 337 53 51 55 111 107 74 358 356 17 327 16 70 168 212 228 219 220 208 190 177 164 154 146 143 131 114 105 95 90 82 57 1 333 325 304 295 288 279 274 274 273 264 250 244 244 245 242 242 242 241 240 239 240 241 240 240 242 239 233 229 226 221 215 214 214 212 210
146 315 351 58 45 47 79 51 38 110 66 346 296 178 238 238 116 117 112 74 61 40 221 99 84 285 318 323 248 305 354 190 215 229 222 219 202 194 186 172 162 150 144 135 115 102 89 80 64 36 4 348 342 329 320 312 299 288 281 279 276 266 252 245 246 247 248 247 246 245 242 240 240 239 239 239 239 235 232 234 231 223 217 216 214 212
217 7 42 84 65 48 59 52 234 125 90 31 273 221 188 116 102 115 114 92 98 177 250 75 117 213 304 280 237 268 313 266 272 252 233 225 206 198 194 177 167 162 155 146 121 93 75 60 41 21 6 1 356 345 334 326 320 309 299 293 287 279 266 250 244 247 251 250 248 248 247 246 245 245 246 245 243 240 237 239 238 231 223 220 219 217
264 4 35 59 64 63 52 36 215 123 104 214 267 162 128 95 85 73 90 95 141 164 66 34 94 130 244 249 227 176 222 271 272 254 241 229 213 202 197 183 174 175 170 159 126 85 56 37 25 14 4 359 353 343 333 327 322 316 310 306 301 293 283 267 251 247 249 251 251 249 250 251 250 250 250 250 250 245 240 239 237 233 227 225 225 222
239 1 23 61 59 67 137 227 205 127 105 246 229 118 104 110 108 88 72 62 25 104 199 318 49 105 249 265 252 148 196 246 243 234 233 223 212 204 196 186 181 182 182 185 171 73 18 13 12 3 356 352 347 339 330 324 320 317 315 312 312 309 299 285 269 257 252 252 253 253 254 255 256 256 252 249 251 249 243 240 237 234 231 232 231 226
246 243 204 116 108 189 230 241 196 144 119 224 152 89 50 61 74 73 87 80 21 72 223 271 64 115 270 275 207 160 209 229 228 226 222 215 210 205 199 191 187 189 192 199 207 316 349 358 358 352 350 347 343 338 331 326 323 321 321 317 316 319 315 299 280 268 261 258 258 260 261 261 261 264 262 253 251 251 247 242 238 236 236 236 235 230
311 284 188 131 168 209 217 252 195 167 227 137 101 55 35 31 35 39 64 92 74 298 242 242 132 140 267 264 201 194 213 215 210 209 212 209 206 203 201 195 192 195 199 206 225 278 327 342 345 345 344 341 336 334 331 328 327 327 325 322 319 321 325 320 300 278 266 262 264 266 268 267 263 263 267 263 257 256 251 246 240 237 238 238 235 231
342 18 194 277 275 213 102 22 353 358 19 104 89 61 54 352 13 28 359 54 128 243 258 254 125 139 230 257 220 220 240 219 199 199 199 196 197 200 199 195 195 197 202 213 236 269 314 332 337 338 336 333 331 331 330 328 332 334 330 327 323 320 323 327 323 306 284 273 272 275 278 277 268 258 257 260 262 259 254 251 247 241 239 238 235 230
358 357 303 324 310 95 79 45 338 354 28 81 90 82 87 330 10 23 302 342 197 243 262 292 99 164 233 247 223 221 231 223 206 205 197 186 188 195 197 195 196 199 206 223 241 270 304 319 326 329 326 326 327 327 327 328 332 335 336 336 328 318 318 325 329 323 308 290 281 282 286 288 285 273 263 259 261 261 257 256 252 246 240 236 234 230
344 313 331 6 359 350 93 120 254 315 26 88 133 125 123 118 81 263 261 309 261 250 277 320 269 255 272 274 225 226 234 225 212 207 198 191 191 194 196 194 197 202 210 224 239 262 289 302 312 317 317 319 322 321 323 327 328 330 336 339 331 322 322 325 326 321 311 294 282 279 279 282 282 277 271 265 261 259 258 256 253 250 243 235 230 225
84 312 314 327 305 338 46 152 170 153 95 106 164 136 136 155 149 205 219 191 236 255 302 310 267 201 230 261 242 254 264 230 210 206 198 196 198 196 194 194 198 204 210 221 232 246 269 289 300 305 308 313 314 311 314 322 325 328 332 332 328 324 324 325 328 326 316 303 293 286 279 277 276 274 272 270 267 262 259 256 252 251 247 237 229 221
95 247 259 276 275 343 6 228 156 108 84 254 176 103 112 183 144 128 184 175 168 245 297 275 245 214 213 270 281 305 347 206 197 198 189 190 194 193 193 195 198 205 211 218 227 239 258 279 291 295 300 304 300 297 306 314 320 326 328 326 326 325 324 324 325 326 324 318 309 301 293 287 284 284 282 280 278 273 267 262 256 254 250 239 230 222
71 266 275 317 305 62 4 282 126 96 165 225 121 151 220 168 119 113 184 86 92 164 268 249 262 295 316 306 322 35 41 33 174 188 185 184 186 189 193 196 200 206 211 218 228 242 257 272 282 287 293 297 289 283 295 307 315 324 324 320 322 324 327 329 327 328 329 329 324 314 304 298 293 289 288 287 285 283 276 266 258 253 250 242 231 223
125 274 291 351 122 316 350 36 58 51 103 116 174 210 204 119 95 106 146 7 43 220 274 278 242 285 321 289 323 12 344 281 229 193 186 182 183 190 195 198 202 206 210 219 228 239 255 267 274 280 288 295 288 280 289 298 305 318 324 320 319 319 324 330 332 334 335 335 333 323 311 305 301 296 291 287 284 284 281 269 256 248 244 241 230 221
113 335 298 295 201 307 347 54 31 6 30 93 160 166 118 118 124 66 128 134 45 235 282 304 274 259 212 227 283 265 226 230 220 199 189 185 188 194 197 198 202 204 209 217 226 238 252 261 266 275 285 292 285 279 288 295 299 311 320 320 320 322 325 330 333 338 343 342 339 332 326 318 311 306 297 291 288 288 287 276 259 246 239 235 227 221
100 103 285 283 245 301 360 43 242 322 10 46 78 59 28 127 157 164 140 160 181 213 259 305 317 272 231 220 207 216 220 207 192 195 199 198 195 196 197 199 200 203 208 216 224 236 245 251 258 267 275 281 280 272 281 296 306 316 320 316 317 319 322 328 336 346 351 350 346 340 337 332 321 310 297 290 289 286 284 274 256 244 235 228 224 222
73 101 238 291 318 320 328 302 199 185 126 54 57 13 341 78 121 172 107 115 145 168 192 263 295 267 247 217 202 224 228 200 191 196 201 202 199 197 199 199 200 203 208 215 223 230 238 245 254 261 264 271 274 266 273 291 305 322 326 316 314 318 317 318 326 341 352 353 352 347 343 341 331 311 287 286 294 286 277 266 248 238 228 221 221 222
129 131 185 284 336 306 251 250 197 172 168 151 157 191 178 132 123 144 296 313 121 157 174 174 263 269 256 213 219 239 236 208 205 200 199 204 201 200 200 200 203 207 209 215 220 226 234 242 250 254 256 265 271 268 273 284 295 317 330 317 313 320 323 320 317 325 336 346 352 354 350 350 348 334 298 280 294 283 267 257 242 236 230 219 218 219
143 116 126 258 256 237 253 274 172 172 155 126 135 169 147 131 122 136 207 254 225 195 157 132 253 271 260 226 239 251 242 225 217 209 205 207 205 204 203 203 207 210 212 215 218 225 233 239 244 246 250 263 270 269 274 281 289 310 326 318 318 322 324 326 323 318 324 332 343 350 350 350 352 347 324 290 286 277 261 250 238 235 232 221 215 216
121 92 91 290 297 297 307 341 30 53 86 104 100 128 137 151 142 152 178 177 173 208 150 122 266 270 275 277 278 270 251 229 218 215 213 211 209 207 205 206 209 209 210 213 218 228 234 235 239 241 248 260 260 259 273 280 287 304 318 319 326 327 322 324 324 318 320 325 336 343 341 342 345 342 336 318 298 284 268 252 239 233 231 223 215 215
193 82 98 34 345 341 342 353 352 344 6 181 253 250 160 126 105 121 132 108 201 223 166 168 247 253 268 301 333 339 300 238 220 216 216 215 211 207 205 207 208 207 208 213 220 230 232 231 237 242 249 254 247 249 264 268 273 291 309 322 329 329 323 322 319 312 317 327 337 335 328 332 337 326 325 342 327 305 292 269 246 234 230 226 219 216
172 182 122 119 176 250 265 285 272 276 274 235 246 225 197 142 129 145 124 113 222 237 168 182 241 261 282 307 326 329 293 263 240 218 215 218 214 208 205 205 205 205 209 215 220 225 227 227 230 237 249 251 244 248 251 252 262 278 299 322 331 329 319 320 316 314 324 334 342 334 323 326 329 308 307 341 358 340 337 331 271 232 222 220 218 216
107 139 162 152 180 198 200 223 221 173 158 245 245 230 206 169 145 123 109 161 197 188 194 222 235 269 288 291 291 278 240 240 245 219 211 214 214 209 205 204 205 207 211 217 220 222 224 222 217 220 235 242 243 247 241 242 254 267 291 320 334 327 312 326 325 321 328 334 339 333 323 319 304 282 290 325 353 346 355 13 12 242 218 216 215 211
87 281 222 167 201 214 205 221 218 158 193 222 228 239 216 182 153 139 178 209 162 132 257 249 213 240 269 265 261 263 242 227 232 222 216 215 212 210 207 204 206 209 213 217 219 220 221 216 209 211 223 232 239 237 229 236 246 257 288 319 332 314 295 317 325 322 324 336 346 343 335 319 282 276 302 335 349 353 10 36 40 44 139 201 205 203
111 239 225 176 235 247 226 230 206 178 225 221 212 230 216 180 172 188 215 207 156 180 250 242 192 218 255 257 252 250 237 234 240 233 225 219 214 210 208 207 209 212 215 219 220 219 217 211 207 213 225 233 238 232 225 228 233 248 283 306 306 285 281 297 312 318 327 342 4 28 40 42 11 349 2 360 352 358 21 46 63 87 103 128 139 151
122 241 219 178 284 286 265 254 210 195 244 255 234 233 214 191 195 209 226 208 186 223 251 250 238 253 259 251 250 258 260 260 258 243 226 217 212 210 209 209 212 213 216 221 219 214 212 210 208 215 228 238 237 228 218 213 217 241 270 265 248 283 294 299 305 312 332 344 8 44 50 49 40 27 14 358 345 335 345 353 323 217 171 151 126 120
140 237 211 104 333 296 297 323 219 191 216 245 261 257 227 211 217 227 237 207 198 242 256 258 273 275 267 244 245 262 267 256 243 229 221 218 213 209 208 209 212 214 216 220 217 211 210 212 211 218 233 241 234 218 206 204 212 234 248 225 220 268 289 287 296 305 327 347 18 42 39 34 24 17 6 356 2 350 318 305 287 272 255 228 205 176
139 227 358 75 18 283 305 357 350 339 273 257 271 266 236 216 214 221 220 191 190 221 243 248 256 263 261 227 236 259 251 225 225 225 222 219 213 208 209 210 211 214 217 220 216 211 211 213 213 220 232 234 224 207 197 204 214 223 223 214 221 237 238 240 276 293 305 345 3 357 4 4 357 356 349 338 337 332 316 292 261 261 265 259 242 228
141 147 151 114 193 272 295 338 337 355 358 291 262 237 209 206 218 239 256 225 204 197 201 216 231 244 242 168 223 254 228 219 235 236 228 221 214 212 213 214 214 216 219 221 216 212 213 212 209 215 225 223 215 206 200 208 214 212 209 217 225 234 240 233 241 267 295 329 320 303 311 323 322 324 322 318 315 306 295 284 265 255 253 251 243 237
144 140 167 167 175 263 286 325 343 337 305 261 238 190 176 198 210 220 240 234 210 192 203 237 252 257 221 189 215 232 224 231 250 254 246 235 223 218 218 218 219 219 221 222 217 213 212 209 204 208 215 214 210 206 203 209 212 206 206 216 222 235 245 231 222 244 281 300 297 293 297 304 307 310 307 304 303 293 276 268 264 254 243 234 225 220
151 146 158 151 151 246 303 11 348 270 241 244 256 227 203 209 200 211 248 252 221 212 233 256 263 254 232 225 231 239 247 257 267 271 266 252 236 228 225 223 221 220 221 219 216 213 210 207 206 207 209 211 211 206 202 206 211 209 209 216 222 233 238 225 224 247 270 289 297 297 302 307 310 313 310 303 296 285 264 248 242 231 221 213 202 202
153 149 145 141 157 221 2 72 203 250 261 278 296 284 190 183 155 204 284 279 233 208 214 237 253 251 243 243 243 247 261 273 278 277 273 262 246 234 230 229 225 222 221 215 210 210 207 205 207 209 210 214 217 212 206 207 211 212 213 219 225 228 229 229 249 263 268 283 297 303 309 315 319 323 321 312 302 284 252 230 221 211 202 194 186 185
149 142 154 188 191 164 158 209 242 303 307 304 315 118 157 176 166 162 264 281 247 203 191 215 251 250 234 243 244 232 238 288 305 282 264 256 251 239 234 236 234 231 228 218 212 212 211 210 211 210 212 217 223 221 210 207 211 214 217 221 224 226 230 245 275 281 276 279 290 301 309 314 324 333 332 323 309 257 211 200 193 185 176 172 172 172
142 153 174 194 222 117 112 282 308 336 297 271 265 259 241 229 205 165 142 294 274 227 202 210 247 242 198 202 201 174 161 20 322 272 254 247 250 243 234 235 235 236 234 225 218 216 216 216 215 211 211 218 226 223 211 209 214 217 217 221 225 228 235 252 272 278 277 277 281 292 301 310 323 335 341 359 142 153 157 154 154 152 151 156 160 161
89 58 136 148 167 110 121 201 218 215 249 250 254 267 283 236 212 123 41 307 279 261 222 211 240 245 196 174 170 154 128 108 249 260 261 260 254 243 234 231 227 226 228 223 218 220 221 223 221 216 214 220 225 219 211 214 218 216 217 221 224 232 245 257 268 275 278 276 274 280 288 304 324 338 13 140 147 147 145 146 147 146 146 150 152 148
77 49 109 147 192 160 147 189 216 234 252 245 245 261 281 189 143 76 29 271 261 294 272 229 249 259 211 172 166 153 161 198 241 271 278 292 273 245 232 229 221 215 216 215 216 224 228 230 225 217 214 219 220 215 213 218 219 217 222 225 225 237 253 259 265 274 278 273 265 265 279 303 325 352 128 145 148 147 146 149 153 152 149 149 148 142
98 73 122 171 189 168 171 222 268 266 249 245 253 250 207 117 81 91 204 238 253 308 312 281 270 269 219 180 178 189 224 235 255 276 279 35 291 251 232 225 218 217 221 220 224 234 234 226 216 210 210 213 212 210 216 222 224 226 227 225 231 245 255 257 264 275 277 266 254 253 273 301 332 126 143 138 138 144 145 146 151 153 150 146 144 141
147 135 131 161 172 164 174 206 282 291 262 235 229 203 158 136 157 220 217 244 288 292 302 300 282 267 234 206 205 225 254 260 263 266 255 229 257 266 246 228 216 217 222 221 228 240 230 213 203 200 203 204 203 211 220 222 225 229 227 228 238 248 250 255 265 273 273 258 244 246 260 277 121 149 149 133 123 131 140 145 150 151 146 141 142 143
169 170 192 192 172 142 104 118 237 283 260 163 127 113 149 183 223 230 226 248 272 282 298 298 279 258 240 232 234 248 266 271 269 268 263 249 245 258 261 239 221 218 220 219 223 224 210 199 195 195 198 198 200 211 216 211 213 223 229 234 239 239 245 254 260 266 264 246 237 240 229 181 136 153 155 137 121 121 128 138 148 151 147 145 147 147
185 178 194 216 183 142 134 179 207 237 208 165 157 172 209 214 230 249 249 250 258 275 284 277 263 250 242 252 263 266 269 273 273 272 267 258 252 258 265 251 227 220 222 223 219 209 197 195 196 195 197 200 202 206 207 206 210 224 233 236 233 238 249 253 254 259 249 232 232 233 208 172 149 161 157 141 128 123 120 124 135 145 151 154 156 154
215 192 166 186 204 170 183 216 227 246 225 198 209 233 235 231 239 247 255 266 267 266 266 259 252 249 250 261 271 273 277 283 282 273 263 258 258 261 266 257 230 222 224 220 207 197 196 199 198 196 200 204 205 206 208 209 215 229 236 236 236 246 254 253 251 249 236 228 236 229 202 186 181 170 156 139 128 124 120 119 123 134 147 153 158 159
214 181 141 153 234 242 255 250 244 255 262 245 240 250 257 259 259 255 255 262 263 262 267 266 259 256 255 257 263 271 280 289 289 278 264 254 252 251 251 245 227 218 213 205 196 193 198 200 198 199 202 205 208 211 212 214 222 236 239 234 239 250 251 251 248 237 227 231 235 220 200 196 190 172 154 138 131 126 124 120 113 123 143 149 151 155
230 168 160 184 193 181 258 255 242 256 271 273 269 264 262 266 271 269 265 263 262 263 265 264 262 260 256 255 260 266 274 284 288 280 262 247 243 240 235 232 223 210 203 199 195 193 196 198 200 202 203 206 211 214 216 219 228 237 233 227 239 248 248 252 244 226 224 231 222 203 195 196 188 171 155 143 133 126 122 115 104 111 135 141 140 145
153 156 172 200 168 170 245 267 281 290 285 282 283 283 285 291 294 292 285 274 267 264 263 260 257 254 253 256 259 261 265 272 281 278 262 245 240 238 234 229 219 207 202 200 196 194 196 199 202 204 206 209 212 215 222 229 232 230 220 216 228 241 252 259 241 222 226 227 206 194 192 193 187 175 166 156 138 121 110 103 99 103 118 123 121 131
137 155 182 167 171 271 284 287 301 310 301 302 323 332 338 337 330 325 315 292 272 262 258 255 251 249 252 257 258 260 262 262 266 271 263 250 239 233 229 224 216 208 204 201 199 199 201 202 205 207 210 211 211 216 227 232 227 219 210 209 217 232 249 262 244 226 230 224 203 194 192 191 188 186 183 171 149 127 110 101 98 98 109 118 120 124
143 185 182 140 139 281 258 253 305 330 269 292 335 351 348 342 338 336 333 320 293 271 257 249 245 244 248 252 254 255 258 259 260 263 260 252 242 232 223 218 214 210 208 206 205 206 206 208 211 212 210 208 209 214 218 215 207 202 201 205 213 222 234 250 245 234 237 229 208 199 194 190 188 189 191 180 162 145 132 120 113 110 112 120 126 130
197 202 175 163 192 236 250 258 254 212 247 284 315 326 328 334 338 335 334 336 324 295 266 250 243 242 244 247 248 249 252 256 257 258 258 252 242 229 218 215 215 215 214 212 210 210 211 211 213 212 208 208 212 213 209 199 190 190 195 202 210 216 221 234 242 241 244 234 212 201 196 192 189 190 193 187 173 161 154 144 135 133 132 131 135 139